Clarksburg, WV

8:15 AM EDT on October 15, 2019 (GMT -0400)
Benedum

Weather History for KCKB - August, 2019

Change the Weather History Date:

Monday, August 5, 2019

  Actual Average Record
Temperature  
Mean Temperature 75 °F -  
Max Temperature 90 °F 83 °F 101 °F (1930)
Min Temperature 62 °F 61 °F 46 °F (1929)
Cooling Degree Days 10    
Growing Degree Days 25 (Base 50)    
Moisture  
Dew Point 62 °F    
Average Humidity 65    
Maximum Humidity 90    
Minimum Humidity 37    
Precipitation  
Precipitation 0.00 in - - ()
Sea Level Pressure  
Sea Level Pressure 29.95 in    
Wind  
Wind Speed 1 mph ()    
Max Wind Speed 6 mph    
Max Gust Speed -    
Visibility 9.4 miles    
Events      
Averages and records for this station are not official NWS values.
T = Trace of Precipitation, MM = Missing Value Source: Averaged Metar Reports

Daily Weather History Graph

Daily Weather History Graph

Search for Another Location

Airport or City:

Astronomy

Aug. 05, 2019 Rise Set
Actual Time 6:24 AM EDT 8:28 PM EDT
Civil Twilight 5:54 AM EDT 8:58 PM EDT
Nautical Twilight 5:18 AM EDT 9:34 PM EDT
Astronomical Twilight 4:39 AM EDT 10:13 PM EDT
Moon 11:37 AM EDT (8/5) 11:42 PM EDT (8/5)
Length of Visible Light 15h 03m
Length of Day
14h 04m
Waxing Crescent, 28% of the Moon is Illuminated
Aug 5
Waxing Crescent
Aug 7
First Quarter
Aug 15
Full
Aug 23
Last Quarter
Aug 30
New

Hourly Weather History & Observations

Time (EDT) Temp. Heat Index Dew Point Humidity Pressure Visibility Wind Dir Wind Speed Gust Speed Precip Events Conditions
12:53 AM 66.0 °F - 61.0 °F 84% 29.98 in 10.0 mi Calm Calm - N/A   Clear
1:53 AM 64.9 °F - 61.0 °F 87% 29.98 in 10.0 mi Calm Calm - N/A   Clear
2:53 AM 64.0 °F - 60.1 °F 87% 29.98 in 8.0 mi Calm Calm - N/A   Clear
3:53 AM 64.0 °F - 60.1 °F 87% 29.96 in 8.0 mi Calm Calm - N/A   Clear
4:53 AM 64.0 °F - 60.1 °F 87% 29.97 in 8.0 mi Calm Calm - N/A   Clear
5:53 AM 63.0 °F - 60.1 °F 90% 29.97 in 8.0 mi Calm Calm - N/A   Clear
6:53 AM 62.1 °F - 59.0 °F 90% 29.99 in 6.0 mi Calm Calm - N/A   Clear
7:53 AM 66.0 °F - 61.0 °F 84% 30.00 in 8.0 mi Calm Calm - N/A   Clear
8:53 AM 70.0 °F - 63.0 °F 78% 30.00 in 10.0 mi Calm Calm - N/A   Clear
9:53 AM 75.9 °F - 64.0 °F 67% 30.00 in 10.0 mi Calm Calm - N/A   Clear
10:53 AM 80.1 °F 81.5 °F 63.0 °F 56% 29.99 in 10.0 mi Calm Calm - N/A   Clear
11:53 AM 82.9 °F 84.0 °F 63.0 °F 51% 29.99 in 10.0 mi Calm Calm - N/A   Clear
12:53 PM 84.9 °F 85.9 °F 63.0 °F 48% 29.97 in 10.0 mi Calm Calm - N/A   Partly Cloudy
1:53 PM 86.0 °F 86.3 °F 62.1 °F 44% 29.95 in 10.0 mi North - - N/A   Clear
2:53 PM 88.0 °F 87.1 °F 59.0 °F 37% 29.93 in 10.0 mi West 3.5 mph - N/A   Clear
3:53 PM 87.1 °F 86.5 °F 59.0 °F 39% 29.91 in 10.0 mi Calm Calm - N/A   Clear
4:53 PM 88.0 °F 87.6 °F 60.1 °F 39% 29.90 in 10.0 mi NW 3.5 mph - N/A   Clear
5:53 PM 87.1 °F 86.7 °F 60.1 °F 40% 29.90 in 10.0 mi NW 3.5 mph - N/A   Clear
6:53 PM 84.9 °F 84.8 °F 60.1 °F 43% 29.89 in 10.0 mi North 5.8 mph - N/A   Clear
7:53 PM 84.0 °F 84.5 °F 62.1 °F 47% 29.90 in 10.0 mi NNW 3.5 mph - N/A   Mostly Cloudy
8:53 PM 78.1 °F - 66.0 °F 66% 29.89 in 10.0 mi SSE 4.6 mph - N/A   Clear
9:53 PM 75.9 °F - 64.0 °F 67% 29.90 in 10.0 mi SW 3.5 mph - N/A   Mostly Cloudy
10:53 PM 73.9 °F - 64.0 °F 71% 29.91 in 10.0 mi Calm Calm - N/A   Scattered Clouds
11:53 PM 70.0 °F - 64.0 °F 81% 29.91 in 10.0 mi Calm Calm - N/A   Clear